Regional Weather Roundup
Issued by NWS

Home | Current Version | Previous Version | Text Only | Print | Product List | Glossary On
Versions: 1 2 3 4 5 6 7 8 9 10 11 12 13 14 15 16 17 18 19 20 21 22 23 24 25 26 27
000
ASUS46 KSEW 170310
RWRWA

WASHINGTON REGIONAL WEATHER ROUNDUP
NATIONAL WEATHER SERVICE SEATTLE WA
800 PM PDT WED APR 16 2014

NOTE:"FAIR" INDICATES FEW OR NO CLOUDS BELOW 12,000 FEET WITH NO
SIGNIFICANT WEATHER AND/OR OBSTRUCTIONS TO VISIBILITY.

WAZ505-507>509-170400-
SEATTLE, TACOMA, EVERETT, AND VICINITY

CITY           SKY/WX    TMP DP  RH WIND       PRES   REMARKS
EVERETT        LGT RAIN  50  47  89 S16       29.97F
BOEING FIELD   LGT RAIN  54  49  83 SE9       29.99F
RENTON         LGT RAIN  52  51  97 SE5       29.99F
SEATAC AIRPORT CLOUDY    51  49  92 SE9       29.99F
JBLM-MCCHORD   CLOUDY    51  51  99 S6        29.99F
PUYALLUP       LGT RAIN  50  48  93 S5        30.00F
JBLM-FT LEWIS  DRIZZLE   51  49  91 SE9       29.98F
TACOMA NARROWS CLOUDY    52  46  80 S8        29.99F
$$

WAZ001-503-506-510-514-515-170400-
NORTH INTERIOR

CITY           SKY/WX    TMP DP  RH WIND       PRES   REMARKS
BELLINGHAM     CLOUDY    52  47  83 S12G17    29.96S
FRIDAY HARBOR  LGT RAIN  49  48  97 SE5       29.96F FOG
EASTSOUND      RAIN      50  48  93 S8        29.94F
PORT ANGELES   LGT RAIN  49  46  90 CALM      29.94F
NAS WHIDBEY    LGT RAIN  53  49  86 SE9       29.96F
BURLINGTON     CLOUDY    52  50  93 SE7       29.99F
$$

WAZ020-022-039-040-504-511-512-170400-
SOUTHWEST INTERIOR

CITY           SKY/WX    TMP DP  RH WIND       PRES   REMARKS
SHELTON        LGT RAIN  50  47  89 S5        29.96F
OLYMPIA        LGT RAIN  51  48  89 S8        29.99F FOG
CHEHALIS       LGT RAIN  52  50  93 S9        30.01F
KELSO          CLOUDY    52  46  82 SE6       30.05F
VANCOUVER      CLOUDY    54  49  83 CALM      30.02F
SCAPPOOSE, OR  LGT RAIN  52  50  93 CALM      30.02F
PORTLAND, OR   CLOUDY    55  47  74 CALM      30.03F
$$

WAZ021-516-517-170400-
WASHINGTON COAST

CITY           SKY/WX    TMP DP  RH WIND       PRES   REMARKS
FORKS          LGT RAIN  50  50 100 S3        29.92F FOG
HOQUIAM        LGT RAIN  51  50  96 S13       29.97F FOG
ASTORIA, OR    LGT RAIN  51  47  86 S10       29.99F FOG
$$

WAZ019-023-024-040-518-519-170400-
CASCADE MOUNTAINS AND COLUMBIA GORGE

CITY           SKY/WX    TMP DP  RH WIND       PRES   REMARKS
STAMPEDE PASS  NOT AVBL
TROUTDALE, OR  CLOUDY    56  45  66 CALM      30.02F
THE DALLES, OR CLOUDY    58  42  55 W12       29.98F
$$

WAZ026-027-041>044-520-521-170400-
EAST SLOPES

CITY           SKY/WX    TMP DP  RH WIND       PRES   REMARKS
OMAK           MOCLDY    57  34  41 S10       29.90S
WENATCHEE      MOCLDY    58  33  39 W9        29.93R
ELLENSBURG     CLOUDY    50  40  68 W10       29.95F
YAKIMA         MOCLDY    58  39  49 W3        29.94S
$$

WAZ028-034-035-170400-
COLUMBIA BASIN

CITY           SKY/WX    TMP DP  RH WIND       PRES   REMARKS
EPHRATA        CLOUDY    57  35  43 SW8       29.92F
MOSES LAKE     CLOUDY    59  35  40 S6        29.94F
HANFORD        NOT AVBL
PASCO          CLOUDY    62  37  39 SW9       29.94F
HERMISTON, OR  CLOUDY    59  39  47 W7        29.95F
$$

WAZ036>038-170400-
NORTHEAST WASHINGTON

CITY           SKY/WX    TMP DP  RH WIND       PRES   REMARKS
SPOKANE GEIGER CLOUDY    48  39  71 S5        29.95F
SPOKANE FELTS  CLOUDY    48  43  82 E6        29.97F
FAIRCHILD AFB  CLOUDY    47  39  72 S6        29.95F
COEURDALENE,ID CLOUDY    45  39  81 S5        29.98F
DEER PARK      CLOUDY    43  41  93 CALM      29.97F
$$

WAZ029>033-170400-
SOUTHEAST WASHINGTON

CITY           SKY/WX    TMP DP  RH WIND       PRES   REMARKS
PULLMAN        CLOUDY    49  37  63 CALM      29.99F
LEWISTON, ID   MOCLDY    55  33  43 SE5       29.97F
WALLA WALLA    MOCLDY    56  39  53 SW5       29.97F
PENDLETON, OR  MOCLDY    54  37  52 W8        29.96S
$$



USA.gov is the U.S. government's official web portal to all federal, state and local government web resources and services.